Timeline UpdatesTrip UpdatesNews PostsPvt Posts♥♥Travel TipsAdmin PostsConv PostsFollowed PostsChat RequestsBlog PostsPNR Posts

Disclaimer
Search
 
 
Tue Oct 21, 2014 04:18:59 ISTHomeTrainsΣChainsAtlasPNRForumGalleryNewsFAQTripsMembersLoginFeedback
No Recent News for this Train
Other Trains in the News **new
Latest...
Discontinued from 1/9/14 #1193229
Thu Aug 21, 2014 (09:08PM)
⇐ Return Journey: Train# 13040

13039/Howrah-Delhi Janta Express (UnReserved)

TRAIN IS CANCELLED
Change Departure Station:
Change Arrival Station:
Post a Train Travel TipPost a Train Travel Tip **new
Post a Comment/Question/Picture/VideoPost a Comment/Question/Picture/Video
Inaugural Run
Tue Oct 01, 1946
Pantry/Catering
✕ NO Pantry Car
✕ NO Catering
RSA - Rake Sharing
Rake/Coach Composition
2 SLR, 5 General Class, and 5-7 HCPV proceeds to Delhi from Bakhtiyarpur.; 2 Sleeper class coaches and general coaches are attached at Bakhtiyarpur to 53232 Danapur-Tilaiya Passenger to run combined upto Rajgir (13039 - Slip); [Loco-SLR-HCPV-HCPV-HCPV-HCPV-HCPV-(HCPV-HCPV)-General-General]-[General-General-General-General-General-SLR-Sleeper-Sleeper]
Loco
Zahaib Entry# 624182 Loco: HWH WAP4
News    PNR    Forum    Time-Table    Availability    Fare Chart    Map    Arr/Dep History    Trips    Gallery    ΣChains    X/O    Timeline    
Travel Time: 4h 1m    7 halts    Distance: 238 km    Avg Speed: 59 km/hr
Type: Mail/Express
Zone: ER/Eastern
Departs @ 20:20 (Avg 2m late)
Platform# 8
SMTWTFS
Kolkata Howrah Junction/HWH 
Arrives @ 00:21 +1 night (Avg 23m late)
Platform# 3
SMTWTFS
Chittaranjan/CRJ 

7 halts. 61 intermediate Stations between Kolkata Howrah Junction and Chittaranjan

Show ALL intermediate Stations  

#TrkCodeStation NameX/OArrivesAvgDepartsAvgHaltPFDay#KmSpeedElevZoneAddress
1/==/HWHKolkata Howrah Junction (23)»  -20:20+2810.05610mERHowrah 711101, West Bengal
2/==/SRPSerampore (4)  20:41+820:42+111m--119.54711mERdist - hooghly, West Bengal
3/==/CGRChandan Nagar (3)  20:59+721:00+111m--132.72416mERDist -HOOGHLY - 712136, West Bengal
4/==/BDCBandel Junction (7)  21:17+521:22+65m--139.57514mERdist - HOOGHLY, West Bengal
5/==/BWNBarddhaman Junction (8)  22:16+622:21+55m--1106.78134mERDist - Barddhaman, West Bengal
6/==/DGRDurgapur (5)  23:08+823:10+82m--1170.37371mERDurgapur, West Bengal
7/==/RNGRaniGanj (4)  23:30+1523:31+201m--1194.65292mERRaniganj, West Bengal
8/==/ASNAsansol Junction (7)  23:52+1423:57+195m--1212.763113mERDist - Bardhaman, West Bengal
9/==/CRJChittaranjan (3)•  00:21+2300:22+231m32237.866182mERMihijam, Jharkhand
10/==/MDPMadhupur Junction (4)  01:13+2101:18+205m--2294.273254mER06432-224478, Jharkhand
11/==/JSMEJasidih Junction (5)  01:42+1801:47+185m--2323.380271mERJasidih, Jharkhand
12/==/STLSimultala (2)  02:06+1902:07+191m--2348.730247mERSimultala, Bihar
13/==/JAJJhajha (4)  02:45+802:50+125m--2367.462143mECRJhajha, Bihar
14/==/GHRGidhaur (2)  03:01+1703:02+191m--2378.867106mECRState Highway 18, Bihar
15/==/JMUJamui (2)  03:15+2103:16+221m--2393.49481mECRState Highway 72, Bihar
16/==/BFMBhalui (2)  03:25+2603:26+261m--2407.55463mECRState Highway 18, Bihar
17/==/MNPMananpur (2)  03:33+2703:34+331m--2413.81757mECRState Highway 18, Bihar
18/==/BSQPBansipur (2)  03:43+3103:44+381m--2416.32453mECRKiul, Bihar
19/==/KIULKiul Junction (5)  03:55+3803:57+462m--2420.71053mECRDist. Lakhisarai, Bihar
20/==/LKRLuckeesarai Junction (2)  04:05+4504:06+461m--2422.04852mECRLakhisarai, Bihar
21/==/MKBMankatha  04:13+4504:14+511m--2427.63147mECRNational Highway 80, Bihar
22/==/DMRXDumri Halt (1)  04:24-04:25-1m12432.8849mECRNational Highway 80, Bihar
23/==/BRYABarhiya (3)  04:57+2204:58+231m--2437.15647mECRBarahiya, Bihar
24/==/RDUMRampur Dumra (3)  05:04+2505:05+251m--2442.73346mECRNational Highway 80, Bihar
25/==/HTZHathidah Junction (2)  05:12+2305:13+241m22446.54550mECRMusahari, Bihar
26/==/ANAHAunta Halt  05:19-05:20-1m--2451.01444mECRPanchmahla, Bihar
27/--/MKAMokama Junction (4)  05:36+1505:38+172m--2454.94948mECRPatna, Bihar
28/==/MORMor (2)  05:47+1605:48+161m--2462.23246mECRMor, Bihar
29/==/KNHPKanhaipur (2)  05:54-05:55-1m--2465.43447mECRMor, Bihar
30/==/MMKBMemrakhabad (2)  05:59-06:00-1m--2467.73249mECRMor, Bihar
31/==/PHKPunarakh (2)  06:05+1206:06+131m--2470.46151mECRPunarakh, Bihar
32/==/BARHBarh (3)  06:16+1306:17+151m--2480.66149mECRBarh, Bihar
33/==/ATLAthmal Gola (2)  06:26+1306:27+141m--2489.74552mECRPatna, Bihar
34/==/BKPBakhtiyarpur Junction (5)06:39+1106:44+115m--2498.75351mECRPatna, Bihar
35/==/TKBGTeka Bigha Halt  06:49-06:50-1m--2503.13251mECRTeka Bigha, Bihar
36/==/SMBHSalim Pur Bihar  06:54-06:55-1m--2505.33654mECRSalim Pur, Bihar
37/==/KWOKarauta (2)  06:59+407:00+51m--2507.75052mECRKarauta, Bihar
38/==/KOOKhusropur (2)  07:07+1207:08+131m--2513.55652mECRPatna, Bihar
39/==/FUTFatwa (6)  07:17+1307:18+141m--2522.04653mECRPatna, Bihar
40/==/BKGBanka Ghat (2)  07:26+1507:27+151m--2528.16156mECRPatna, Bihar
41/==/PNCPatna Saheb (3)  07:33+1707:34+181m--2534.22659mECRPatna 800008, Bihar
42/==/GZHGulzarbagh (3)  07:41+1507:42+171m--2537.22855mECRPatna, Bihar
43/==/RJPBRajendra Nagar Bihar (4)  07:51+1507:53+152m--2541.5755mECRPatna 800001, Bihar
44/==/PNBEPatna Junction (10)  08:15+408:25+1110m--2544.13857mECRPatna 800001, Bihar
45/==/DNRDanapur (5)  08:40+1808:50+1810m--2553.56058mECRKhagaul, Bihar
46/==/NEONeora (2)  08:56+2108:57+221m--2559.55361mECRNational Highway 98, Bihar
47/==/SDESadisopur (2)  09:05-09:06-1m--2566.63664mECRSadisopur, Bihar
48/==/BTABihta (2)  09:13+2009:14+211m--2570.84062mECRDistt: Patna, Bihar
49/==/KWRKoelwar (2)  09:27-09:28-1m--2579.64365mECRNational Highway 30, Bihar
50/==/KUAKulharia (2)  09:33+1909:34+211m--2583.14261mECRChandi Sahar Rd, Bihar
51/==/ARAAra Junction (3)  09:48+1709:53+185m--2593.06663mECRDistt: Bhojpur Ph 06182-233411, Bihar
52/==/KRSKarisath (2)  10:02+2510:03+261m--2602.97765mECRKarisath, Bihar
53/==/BEABihiya (3)  10:12+3110:13+321m--2614.45967mECRBehea, Bihar
54/==/BYNBanahi (2)  10:19+3410:20+341m--2620.45967mECRBanahi, Bihar
55/==/RPRRaghunathpur (4)  10:29+3710:30+381m--2629.26369mECRRaghunathpur, Bihar
56/==/TWGTwining Ganj  10:38+3710:39+381m--2637.63370mECRArrah Buxar Rd, Bihar
57/==/DUREDumraon (3)  10:53+3310:54+341m--2645.25270mECRDumraon, Bihar
58/==/BXRBuxar (3)  11:13+2711:17+284m--2661.57367mECRBuxar, Bihar
59/==/CSAChausa (2)  11:26+3011:27+311m--2672.54368mECRState Highway 14, Bihar
60/==/GMRGahmar (2)  11:40+2711:41+281m--2681.76168mECRDistt: Ghazipur, Uttar Pradesh
61/==/BWHBhadaura (2)  11:49+2911:50+301m--2689.95269mECRGhazipur, Uttar Pradesh
62/==/DLNDildarnagar Junction (2)  11:59+2412:04+245m--2697.78172mECRDildarnagar, Uttar Pradesh
63/==/ZNAZamania (2)  12:14+2812:15+301m--2711.210477mECRGhazipur, Uttar Pradesh
64/==/SLDSakaldiha (2)  12:30+3912:31+471m--2737.21281mECRState Highway 69, Uttar Pradesh
65/==/MGSMughal Sarai Junction (8)  14:02+714:17+715m62755.42183mECRDistt: Chandauli Pin 232101, Uttar Pradesh
66/==/ARWAhraura Road (4)  14:56+1614:57+271m--2769.25185mNCRDist. Mirzapur - 231305, Uttar Pradesh
67/==/KYTKailahat (4)  15:07+2815:08+311m--2777.74783mNCRKailahat, Uttar Pradesh
68/--/CARChunar Junction (5)  15:20+3615:22+452m32787.24985mNCRChunar Junction, Uttar Pradesh
69/==/MZPMirzapur (3)  16:00+1:0016:05+1:035m--2818.55588mNCRMirzapur, Uttar Pradesh
70/==/BDLVindhyachal (3)  16:13+1:2016:15+1:292m32825.84988mNCRMirzapur, Uttar Pradesh
71/==/GAEGaipura (4)  16:30+1:5216:31+1:591m--2838.13486mNCRGaipura, Uttar Pradesh
72/==/JIAJigna (1)  16:43+1:5816:44+2:051m12845.06294mNCRNational Highway 76, Uttar Pradesh
73/==/MNFManda Road  16:52+2:0716:54+2:062m--2853.35493mNCRNH 76, Uttar Pradesh
74/==/UNDUnchdih  17:03+2:0617:04+2:061m--2861.47094mNCRUnchdih, Uttar Pradesh
75/==/MJAMeja Road (4)  17:11+2:0817:13+2:082m--2869.56894mNCRDistrict Allahabad, Uttar Pradesh
76/==/KCNKarchana  17:31+2:0717:32+2:171m--2889.95894mNCRKarchana, Uttar Pradesh
77/==/NYNNaini Junction (4)  17:43+2:4017:44+2:421m22900.52098mNCRAllahabad, Uttar Pradesh
78/==/ALDAllahabad Junction (10)  18:05+2:3018:15+2:3610m42907.622100mNCRAllahabad 211003, Uttar Pradesh
79/==/SFGSubedarGanj (3)  18:25+3:0018:26+3:011m--2911.450100mNCRAllahabad, Uttar Pradesh
80/==/BMUBamhrauli  18:32+3:0518:33+3:101m--2916.456102mNCRAllahabad, Uttar Pradesh
81/==/MREManauri  18:42+3:1318:43+3:191m--2924.820105mNCRSabderganj-Fatehpur Rd, Uttar Pradesh
82/==/SYWNSaiyid Sarawan  18:57+3:1318:58+3:161m--2929.445106mNCR212203 ?, Uttar Pradesh
83/==/MNJManoharGanj  19:08+3:1519:09+3:251m--2936.952104mNCRNational Highway 2, Uttar Pradesh
84/==/BREBharwari  19:18+3:2619:20+3:362m--2944.727108mNCRBharwari, Uttar Pradesh
85/==/BDNPBidanpur  19:29+3:3419:30+3:401m--2948.762106mNCRBidanpur, Uttar Pradesh
86/==/SJTShujaatpur  19:36+3:4419:37+3:461m--2955.066107mNCRNational Highway 2, Uttar Pradesh
87/==/SROSirathu (2)  19:46+3:4819:48+3:512m12964.862109mNCRSirathu, Uttar Pradesh
88/==/KGAKhaga (3)  20:12+3:5620:14+4:012m--2989.780114mNCRFatehpur, Uttar Pradesh
89/==/FTPFatehpur (3)  20:40+4:2020:45+4:255m--21024.374120mNCRFatehpur, Uttar Pradesh
90/==/MWHMalwan (2)  20:58+4:2621:00+4:352m--21040.583122mNCRFatehpur, Uttar Pradesh
91/==/BKOBindki Road  21:11+4:4221:13+5:082m--21055.626124mNCRFatehpur, Uttar Pradesh
92/==/CNBKanpur Central (10)  23:00+4:0823:10+4:1510m--21102.070128mNCRKANPUR-208 001, Uttar Pradesh
93/==/RURARura (4)  23:48+5:2623:50+5:372m--21146.371137mNCRJhinjhak, Uttar Pradesh
94/==/JJKJhinjhak (3)  00:06+5:3600:08+5:452m331165.370140mNCRAuraiya, Uttar Pradesh
95/==/PHDPhaphund (4)  00:25+5:5800:27+5:582m--31185.225146mNCRdist. Auraiya, Uttar Pradesh
96/==/ULDAchalda (3)  01:07+5:3301:09+5:332m--31201.973147mNCRDist. Auraiya(05688-1072), Uttar Pradesh
97/==/BNTBharthana (3)  01:25+5:3201:27+5:442m--31221.420147mNCRBharthana, Uttar Pradesh
98/==/ETWEtawah (5)  02:27+5:0102:32+5:045m231241.313154mNCRDistt. Etawah, Uttar Pradesh
99/==/JGRJaswantnagar (2)  03:46+4:1603:48+4:182m--31257.353154mNCRJaswantnagar, Uttar Pradesh
100/==/SKBShikohabad Junction (4)  04:33+4:2704:38+4:255m--31296.737166mNCRDistrict Firozabad, Uttar Pradesh
101/==/FZDFirozabad (4)  05:10+4:1305:15+4:175m331316.633164mNCRFirozabad, Uttar Pradesh
102/==/TDLTundla Junction (5)  05:45+4:0005:55+4:0510m--31333.155167mNCRDistt.Firozabad, Uttar Pradesh
103/--|BRNBarhan Junction  06:11+4:4206:12+4:431m--31347.872173mNCRJN Point-Tundle/Aligarh/Etah, Uttar Pradesh
104/==/JLSJalesar Road (1)  06:23+4:4706:24+4:501m131361.075172mNCRMDR 106W, Uttar Pradesh
105/==/HRSHathras Junction (3)  06:40+4:5706:45+4:555m--31381.160183mNCRMahamaya Nagar(05722-242803), Uttar Pradesh
106/==/SNSSasni (3)  06:54+4:5506:55+5:011m--31390.055185mNCRSasni, Uttar Pradesh
107/==/MXKMandrak (2)  07:03+5:0107:04+5:021m--31397.476190mNCRNational Highway 93, Uttar Pradesh
108/==/ALJNAligarh Junction (4)  07:15+5:0107:20+5:015m--31411.265192mNCRAligarh, Uttar Pradesh
109/==/KLAKulwa (2)  07:31+5:1507:32+5:151m--31423.268190mNCRAligarh, Uttar Pradesh
110/==/SOMSomna (2)  07:41+5:1507:42+5:151m--31433.368195mNCRNational Highway 91, Uttar Pradesh
111/==/DARDanwar (2)  07:51+5:1907:52+5:191m--31443.674198mNCRDanwar, Uttar Pradesh
112/==/KRJKhurja Junction (4)  08:01+5:2808:06+5:265m--31454.77199mNCRBulandshahr, Uttar Pradesh
113/==/SKQSikandarpur (2)  08:55+4:4508:56+4:451m--31460.467199mNCRMDR 70W, Uttar Pradesh
114/==/CHLChola (3)  09:04+4:4709:05+4:471m--31469.359204mNCRTahsil Bulandshahar, Uttar Pradesh
115/==/WAIRWair (2)  09:10+4:5109:11+4:521m131474.210203mNCRBulandshahr District, Uttar Pradesh
116/==/DKDEDankaur (3)  10:05+4:0710:06+4:091m--31483.238209mNCRShyam Nagar Mandi, Uttar Pradesh
117/==/GZBGhaziabad Junction (6)  11:00+3:4411:02+3:442m--31517.448217mNRGhaziabad, Uttar Pradesh
118/==/DSAShahdara Junction (4)  11:19+2:5811:21+2:572m--31531.016212mNRCircular Rd, Delhi NCT
119/==/DLIOld Delhi Junction (16)  11:45+3:50-1331537.3-219mNRNear Chandni Chowk Metro Station, Delhi NCT
Scroll to Top
Scroll to Bottom